Previsão horária em Juru

Hoje, 18 Junho, Sexta-feira

Tempo Temperatura Precipitação Vento Pressão Humidade
00:00 +20°C° 0 mm 4 m/s 710 mmHg 87%
01:00 +19°C° 0 mm 4 m/s 710 mmHg 89%
02:00 +19°C° 0 mm 3 m/s 709 mmHg 90%
03:00 +18°C° 0 mm 3 m/s 709 mmHg 92%
04:00 +18°C° 0 mm 3 m/s 709 mmHg 92%
05:00 +18°C° 0 mm 3 m/s 710 mmHg 91%
06:00 +18°C° 0 mm 3 m/s 710 mmHg 91%
07:00 +20°C° 0 mm 4 m/s 711 mmHg 77%
08:00 +23°C° 0 mm 4 m/s 711 mmHg 62%
09:00 +27°C° 0 mm 5 m/s 712 mmHg 48%
10:00 +29°C° 0 mm 5 m/s 712 mmHg 43%
11:00 +32°C° 0 mm 4 m/s 711 mmHg 38%
12:00 +34°C° 0 mm 4 m/s 711 mmHg 33%
13:00 +33°C° 0 mm 4 m/s 711 mmHg 35%
14:00 +33°C° 0 mm 4 m/s 710 mmHg 36%
15:00 +32°C° 0 mm 4 m/s 709 mmHg 37%
16:00 +29°C° 0 mm 4 m/s 710 mmHg 44%
17:00 +28°C° 0 mm 4 m/s 710 mmHg 51%
18:00 +26°C° 0 mm 4 m/s 710 mmHg 57%
19:00 +25°C° 0 mm 5 m/s 710 mmHg 61%
20:00 +23°C° 0 mm 5 m/s 711 mmHg 65%
21:00 +22°C° 0 mm 6 m/s 711 mmHg 69%
22:00 +21°C° 0 mm 6 m/s 711 mmHg 75%
23:00 +20°C° 0 mm 6 m/s 711 mmHg 80%

Amanhã, 19 Junho, Sábado

Tempo Temperatura Precipitação Vento Pressão Humidade
00:00 +19°C° 0 mm 5 m/s 711 mmHg 85%
01:00 +19°C° 0 mm 5 m/s 710 mmHg 86%
02:00 +19°C° 0 mm 5 m/s 710 mmHg 87%
03:00 +19°C° 0 mm 5 m/s 710 mmHg 88%
04:00 +19°C° 0 mm 5 m/s 710 mmHg 87%
05:00 +19°C° 0 mm 5 m/s 710 mmHg 86%
06:00 +19°C° 0 mm 5 m/s 711 mmHg 85%
07:00 +21°C° 0 mm 6 m/s 711 mmHg 75%
08:00 +23°C° 0 mm 6 m/s 712 mmHg 64%
09:00 +27°C° 0 mm 7 m/s 713 mmHg 54%
10:00 +28°C° 0 mm 7 m/s 712 mmHg 50%
11:00 +29°C° 0 mm 7 m/s 712 mmHg 46%
12:00 +32°C° 0 mm 6 m/s 712 mmHg 42%
13:00 +29°C° 0 mm 6 m/s 711 mmHg 47%
14:00 +28°C° 0 mm 6 m/s 711 mmHg 51%
15:00 +27°C° 0 mm 6 m/s 710 mmHg 56%
16:00 +26°C° 0 mm 6 m/s 711 mmHg 58%
17:00 +25°C° 0 mm 5 m/s 711 mmHg 61%
18:00 +25°C° 0 mm 5 m/s 711 mmHg 63%
19:00 +23°C° 0 mm 5 m/s 711 mmHg 69%
20:00 +21°C° 0 mm 5 m/s 711 mmHg 75%
21:00 +20°C° 0 mm 5 m/s 711 mmHg 81%
22:00 +20°C° 0 mm 5 m/s 711 mmHg 84%
23:00 +19°C° 0 mm 4 m/s 711 mmHg 87%

Depois de amanhã, 20 Junho, Domingo

Tempo Temperatura Precipitação Vento Pressão Humidade
00:00 +19°C° 0 mm 4 m/s 711 mmHg 90%
01:00 +19°C° 0 mm 4 m/s 710 mmHg 91%
02:00 +18°C° 0 mm 3 m/s 710 mmHg 93%
03:00 +18°C° 0 mm 2 m/s 710 mmHg 94%
04:00 +18°C° 0 mm 2 m/s 710 mmHg 93%
05:00 +19°C° 0 mm 2 m/s 710 mmHg 92%
06:00 +19°C° 0 mm 2 m/s 710 mmHg 90%
07:00 +21°C° 0 mm 3 m/s 711 mmHg 82%
08:00 +23°C° 0 mm 4 m/s 711 mmHg 75%
09:00 +25°C° 0 mm 5 m/s 712 mmHg 67%
10:00 +27°C° 0 mm 5 m/s 711 mmHg 60%
11:00 +29°C° 0 mm 4 m/s 711 mmHg 53%
12:00 +30°C° 0 mm 4 m/s 711 mmHg 46%
13:00 +31°C° 0 mm 3 m/s 710 mmHg 45%
14:00 +31°C° 0 mm 3 m/s 709 mmHg 44%
15:00 +31°C° 0 mm 2 m/s 709 mmHg 43%
16:00 +29°C° 0.2 mm 2 m/s 709 mmHg 53%
17:00 +27°C° 0.2 mm 2 m/s 709 mmHg 63%
18:00 +25°C° 0.2 mm 2 m/s 709 mmHg 73%
19:00 +24°C° 0.5 mm 2 m/s 710 mmHg 78%
20:00 +23°C° 0.5 mm 2 m/s 710 mmHg 83%
21:00 +21°C° 0.5 mm 2 m/s 711 mmHg 87%
22:00 +21°C° 0 mm 2 m/s 710 mmHg 89%
23:00 +21°C° 0 mm 2 m/s 710 mmHg 91%

21 Junho, Segunda-feira

Tempo Temperatura Precipitação Vento Pressão Humidade
00:00 +20°C° 0 mm 2 m/s 710 mmHg 92%
01:00 +20°C° 0 mm 2 m/s 710 mmHg 93%
02:00 +20°C° 0 mm 2 m/s 709 mmHg 94%
03:00 +19°C° 0 mm 2 m/s 709 mmHg 94%
04:00 +19°C° 0 mm 2 m/s 709 mmHg 95%
05:00 +19°C° 0 mm 2 m/s 710 mmHg 95%
06:00 +19°C° 0 mm 2 m/s 710 mmHg 95%
07:00 +21°C° 0 mm 2 m/s 710 mmHg 87%
08:00 +22°C° 0 mm 3 m/s 711 mmHg 79%
09:00 +25°C° 0 mm 3 m/s 712 mmHg 71%
10:00 +27°C° 0 mm 3 m/s 711 mmHg 59%
11:00 +30°C° 0 mm 3 m/s 711 mmHg 47%
12:00 +33°C° 0 mm 3 m/s 711 mmHg 36%
13:00 +34°C° 0 mm 3 m/s 710 mmHg 32%
14:00 +34°C° 0 mm 3 m/s 709 mmHg 28%
15:00 +35°C° 0 mm 3 m/s 708 mmHg 25%
16:00 +33°C° 0 mm 3 m/s 708 mmHg 31%
17:00 +30°C° 0 mm 3 m/s 709 mmHg 37%
18:00 +28°C° 0 mm 4 m/s 709 mmHg 43%
19:00 +26°C° 0 mm 4 m/s 709 mmHg 55%
20:00 +25°C° 0 mm 4 m/s 709 mmHg 68%
21:00 +22°C° 0 mm 4 m/s 710 mmHg 80%
22:00 +22°C° 0 mm 3 m/s 710 mmHg 84%
23:00 +21°C° 0 mm 3 m/s 710 mmHg 88%

22 Junho, Terça-feira

Tempo Temperatura Precipitação Vento Pressão Humidade
00:00 +20°C° 0 mm 3 m/s 710 mmHg 91%
01:00 +21°C° 0.1 mm 3 m/s 709 mmHg 90%
02:00 +21°C° 0.1 mm 3 m/s 709 mmHg 89%
03:00 +21°C° 0.1 mm 3 m/s 709 mmHg 88%
04:00 +20°C° 0 mm 2 m/s 709 mmHg 89%
05:00 +20°C° 0 mm 2 m/s 709 mmHg 90%
06:00 +19°C° 0 mm 2 m/s 710 mmHg 91%
07:00 +21°C° 0 mm 3 m/s 710 mmHg 79%
08:00 +25°C° 0 mm 4 m/s 711 mmHg 66%
09:00 +27°C° 0 mm 4 m/s 711 mmHg 54%
10:00 +29°C° 0 mm 4 m/s 711 mmHg 45%
11:00 +32°C° 0 mm 4 m/s 711 mmHg 36%
12:00 +34°C° 0 mm 4 m/s 710 mmHg 26%
13:00 +35°C° 0 mm 4 m/s 710 mmHg 25%
14:00 +35°C° 0 mm 4 m/s 709 mmHg 24%
15:00 +36°C° 0 mm 4 m/s 708 mmHg 23%
16:00 +34°C° 0 mm 4 m/s 708 mmHg 27%
17:00 +32°C° 0 mm 4 m/s 708 mmHg 31%
18:00 +29°C° 0 mm 4 m/s 708 mmHg 35%
19:00 +27°C° 0 mm 4 m/s 709 mmHg 45%
20:00 +25°C° 0 mm 4 m/s 709 mmHg 55%
21:00 +23°C° 0 mm 4 m/s 710 mmHg 65%
22:00 +22°C° 0 mm 4 m/s 709 mmHg 72%
23:00 +20°C° 0 mm 3 m/s 709 mmHg 78%

23 Junho, Quarta-feira

Tempo Temperatura Precipitação Vento Pressão Humidade
00:00 +19°C° 0 mm 3 m/s 709 mmHg 84%
01:00 +19°C° 0 mm 2 m/s 709 mmHg 86%
02:00 +18°C° 0 mm 2 m/s 709 mmHg 89%
03:00 +19°C° 0 mm 1 m/s 708 mmHg 91%
04:00 +19°C° 0 mm 1 m/s 709 mmHg 91%
05:00 +19°C° 0 mm 1 m/s 709 mmHg 92%
06:00 +19°C° 0 mm 1 m/s 709 mmHg 93%
07:00 +21°C° 0 mm 2 m/s 710 mmHg 80%
08:00 +25°C° 0 mm 3 m/s 710 mmHg 67%
09:00 +28°C° 0 mm 4 m/s 711 mmHg 54%
10:00 +29°C° 0 mm 4 m/s 710 mmHg 51%
11:00 +30°C° 0 mm 4 m/s 710 mmHg 47%
12:00 +32°C° 0 mm 4 m/s 709 mmHg 44%
13:00 +32°C° 0 mm 4 m/s 709 mmHg 44%
14:00 +31°C° 0 mm 3 m/s 708 mmHg 44%
15:00 +31°C° 0 mm 3 m/s 708 mmHg 44%
16:00 +28°C° 0.2 mm 3 m/s 708 mmHg 56%
17:00 +26°C° 0.2 mm 3 m/s 708 mmHg 68%
18:00 +23°C° 0.2 mm 4 m/s 709 mmHg 80%
19:00 +22°C° 0.5 mm 4 m/s 709 mmHg 83%
20:00 +22°C° 0.5 mm 4 m/s 709 mmHg 86%
21:00 +21°C° 0.5 mm 4 m/s 710 mmHg 89%
22:00 +21°C° 0 mm 4 m/s 710 mmHg 89%
23:00 +21°C° 0 mm 3 m/s 710 mmHg 90%
Mostrar mais

Necessitamos do seu Consentimento

A Meteoprog e os seus Fornecedores de Serviços podem armazenar e aceder a dados pessoais como cookies, identificadores do dispositivo ou outras tecnologias semelhantes existentes no seu dispositivo e processar estes dados para personalizar conteúdos e anúncios, assim como funcionalidades nas redes sociais e análise de tráfego.

  • Armazenar e/ou aceder a informações no seu dispositivo

    Os cookies, identificadores do dispositivo ou outras informações podem ser armazenados ou acedidos no seu dispositivo, para os fins acima indicados.

  • Anúncios e conteúdos personalizados, medição de anúncios e conteúdos, dados sobre o público-alvo e desenvolvimento de produtos

    Os anúncios e os conteúdos podem ser personalizados com base num perfil. Podem ser adicionados dados adicionais para uma maior personalização dos anúncios e dos conteúdos. A eficácia dos anúncios e dos conteúdos pode ser medida. Podem ser obtidas informações sobre o público que visualizou os anúncios e os conteúdos. Estes dados podem ser usados para desenvolver ou melhorar sistemas, softwares ou a experiência do utilizador.

Ao clicar em "Eu concordo”, permitirá o uso de cookies, identificadores do dispositivo e web beacons mencionados ou outras tecnologias semelhantes. As configurações do navegador do seu dispositivo podem ser alteradas.

Para certos fins, podem ser invocados interesses legítimos ao invés de consentimento. Pode ler mais informação sobre este assunto na nossa Política de Privacidade e Cookies.